This is the latest recevied weather packets stored in our database for station/object W8KVG. If no packets are shown the sender has not sent any weather packets the latest 10 day(s).
| Time | Temp. | Humidity | Pressure | Rain* | Wind** | Luminosity | Snow |
|---|---|---|---|---|---|---|---|
| 1777682317 | 4.44° C | 98% | 1013.1 hPa | 0 mm | - | 0 W/m² | - |
| 1777682014 | 4.44° C | 98% | 1013 hPa | 0 mm | - | 0 W/m² | - |
| 1777681710 | 4.44° C | 98% | 1012.8 hPa | 0 mm | - | 0 W/m² | - |
| 1777681408 | 5° C | 98% | 1012.5 hPa | 0 mm | - | 0 W/m² | - |
| 1777681105 | 5° C | 98% | 1012.4 hPa | 0 mm | - | 0 W/m² | - |
| 1777680803 | 4.44° C | 98% | 1012.4 hPa | 0 mm | - | 1 W/m² | - |
| 1777680500 | 5° C | 98% | 1012.4 hPa | 0 mm | - | 1 W/m² | - |
| 1777680198 | 5° C | 98% | 1012.2 hPa | 0 mm | - | 1 W/m² | - |
| 1777679894 | 5° C | 98% | 1012.4 hPa | 0 mm | - | 2 W/m² | - |
| 1777679589 | 5° C | 98% | 1012.2 hPa | 0 mm | - | 2 W/m² | - |
| 1777679285 | 5° C | 98% | 1012 hPa | 0 mm | - | 5 W/m² | - |
| 1777678982 | 5.56° C | 99% | 1011.9 hPa | 0 mm | - | 7 W/m² | - |
| 1777678681 | 5.56° C | 99% | 1011.6 hPa | 0 mm | - | 5 W/m² | - |
| 1777678378 | 5.56° C | 99% | 1011.5 hPa | 0 mm | - | 5 W/m² | - |
| 1777678073 | 6.11° C | 99% | 1011.4 hPa | 0 mm | - | 4 W/m² | - |
| 1777677770 | 6.11° C | 98% | 1011.1 hPa | 0 mm | - | 9 W/m² | - |
| 1777677468 | 6.11° C | 98% | 1011.1 hPa | 0 mm | - | 26 W/m² | - |
| 1777677166 | 6.11° C | 98% | 1011.3 hPa | 0 mm | - | 23 W/m² | - |
| 1777676864 | 6.11° C | 98% | 1010.8 hPa | 0.51 mm | - | 31 W/m² | - |
| 1777676563 | 6.11° C | 98% | 1010.7 hPa | 0.51 mm | - | 26 W/m² | - |
| 1777676260 | 6.11° C | 97% | 1011.4 hPa | 0.51 mm | - | 15 W/m² | - |
| 1777675957 | 6.11° C | 97% | 1011.3 hPa | 0.51 mm | - | 10 W/m² | - |
| 1777675653 | 6.11° C | 97% | 1011 hPa | 2.29 mm | - | 7 W/m² | - |
| 1777675351 | 6.67° C | 96% | 1010.7 hPa | 5.33 mm | - | 13 W/m² | - |
| 1777675047 | 7.78° C | 95% | 1010.8 hPa | 0.51 mm | - | 4 W/m² | - |
* Rain latest hour (hover to see other rain measurements)
** Current wind speed in m/s (hover to see current wind gust speed)